SCP
1 1 1 1 1 1 1 1 0 0 0 0 0 0 0 0 0 0 0 0 0 0 0 0 0 0 1 0 0 0 0 0 0 0 0 0 0 0 0 0 0 0 0
1 1 1 1 1 1 1 1 1 1 0 0 0 0 0 0 0 0 0 0 0 0 0 0 1 1 1 0 0 0 0 0 0 0 0 0 0 0 0 0 0 0 0
1 1 1 1 1 1 1 1 1 1 1 1 1 1 1 1 1 0 0 0 0 0 0 0 1 1 1 0 0 0 0 0 0 0 0 0 0 0 0 0 0 0 0
1 1 1 1 1 1 1 1 1 1 1 1 1 1 1 1 0 0 0 0 0 0 0 0 0 0 0 0 0 0 0 0 0 0 0 0 0 0 0 0 0 0 0
1 1 1 1 1 1 1 1 1 1 1 1 1 1 0 0 0 0 0 0 0 0 0 0 0 0 0 0 0 0 0 0 0 0 0 0 0 0 0 0 0 0 0
1 1 1 1 1 1 1 1 1 1 1 1 1 0 0 0 0 0 0 0 0 0 0 0 0 0 0 0 0 0 0 0 0 0 0 0 0 0 0 0 0 0 0
1 1 1 1 1 1 1 1 1 1 1 1 1 0 0 0 0 0 0 0 0 0 0 0 0 0 0 0 0 0 0 0 0 0 0 0 0 0 0 0 0 0 0
1 1 1 1 1 1 1 1 1 1 1 1 1 1 0 0 0 0 0 0 0 0 0 0 0 0 0 0 0 0 0 0 0 0 0 0 0 0 0 0 0 0 0
0 0 0 1 1 1 1 1 1 1 1 1 1 1 0 0 0 0 0 0 0 0 0 0 0 0 0 0 0 0 0 0 0 0 0 0 0 0 0 0 0 0 0
0 0 0 0 0 1 1 0 1 1 1 0 0 0 0 0 0 0 0 0 0 0 0 0 0 0 0 0 0 0 0 0 0 0 0 0 0 0 0 0 0 0 0
0 0 0 0 0 0 0 0 0 0 0 0 0 0 0 0 0 0 0 0 0 0 0 0 0 0 0 0 0 0 0 0 0 0 0 0 0 0 0 0 0 0 0
0 0 0 0 0 0 0 0 0 0 0 0 0 0 0 0 0 0 0 0 0 0 0 0 0 0 0 0 0 0 0 0 0 0 0 0 0 0 0 0 0 0 0
0 0 0 0 0 0 0 0 0 0 0 0 0 0 0 0 0 0 0 0 0 0 0 0 0 0 0 0 0 0 0 0 0 0 0 0 0 0 0 0 0 0 0
0 0 0 0 0 0 0 0 0 0 0 0 0 0 0 0 0 0 0 0 0 0 0 0 0 0 0 0 0 0 0 0 0 0 0 0 0 0 0 0 0 0 0
0 0 0 0 0 0 0 0 0 0 0 0 0 0 0 0 0 0 0 0 0 0 0 0 0 0 0 0 0 0 0 0 0 0 0 0 0 0 0 0 0 0 0
0 0 0 0 0 0 0 0 0 0 0 0 0 0 0 0 0 0 0 0 0 0 0 0 0 0 0 0 0 0 0 0 0 0 0 0 0 0 0 0 0 0 0
0 0 0 0 0 0 0 0 0 0 0 0 0 0 0 0 0 0 0 0 0 0 0 0 0 0 0 0 0 0 0 0 0 0 0 0 0 0 0 0 0 0 0
0 0 0 0 0 0 0 0 0 0 0 0 0 0 0 0 0 0 0 0 0 0 0 0 0 0 0 0 0 0 0 0 0 0 0 0 0 0 0 0 0 0 0
0 0 0 0 0 0 0 0 0 0 0 0 0 0 0 0 0 0 0 0 0 0 0 0 0 0 0 0 0 0 0 0 0 0 0 0 0 0 0 0 0 0 0
0 0 0 0 0 0 0 0 0 0 0 0 0 0 0 0 0 0 0 0 0 0 0 0 0 0 0 0 0 0 0 0 0 0 0 0 0 0 0 0 0 0 0
0 0 0 0 0 0 0 0 0 0 0 0 0 0 0 0 0 0 0 0 0 0 0 0 0 0 0 0 0 0 0 0 0 0 0 0 0 0 0 0 0 0 0
0 0 0 0 0 0 0 0 0 0 0 0 0 0 0 0 0 0 0 0 0 0 0 0 0 0 0 0 0 0 0 0 0 0 0 0 0 0 0 0 0 0 0
0 0 0 0 0 0 0 0 0 0 0 0 0 0 0 0 0 0 0 0 0 0 0 0 0 0 0 0 0 0 0 0 0 0 0 0 0 0 0 0 0 0 0
0 0 0 0 0 0 0 0 0 0 0 0 0 0 0 0 0 0 0 0 0 0 0 0 0 0 0 0 0 0 0 0 0 0 0 0 0 0 0 0 0 0 0
0 0 0 0 0 0 0 0 0 0 0 0 0 0 0 0 0 0 0 0 0 0 0 0 0 0 0 0 0 0 0 0 0 0 0 0 0 0 0 0 0 0 0
0 0 0 0 0 0 0 0 0 0 0 0 0 0 0 0 0 0 0 0 0 0 0 0 0 0 0 0 0 0 0 0 0 0 0 0 0 0 0 0 0 0 0
Wind_Speed
6 5 4 3 4 4 5 4 4 4 5 5 4 4 3 2 2 2 3 7 4 2 1 1 2 4 5 5 5 6 6 7 7 7 6 6 6 7 7 7 8 8 9
5 5 5 4 4 4 3 4 4 4 4 2 3 2 2 1 0 1 1 4 6 4 3 2 2 2 2 3 3 3 2 2 2 2 3 3 4 5 5 6 6 7 7
5 5 5 5 4 4 4 4 4 4 4 3 3 2 1 0 0 0 2 2 2 5 6 6 6 5 3 2 1 1 2 3 3 3 2 2 3 3 3 3 4 4 4
6 5 4 4 4 4 4 4 4 3 3 3 2 1 1 1 1 0 1 1 2 2 6 8 8 8 7 5 4 3 2 1 0 1 0 1 2 1 1 1 2 2 3
4 4 3 3 4 4 4 4 3 3 3 2 2 2 0 0 1 1 1 2 2 2 3 7 9 9 9 8 7 6 5 4 3 3 2 2 1 1 1 1 2 2 3
4 3 3 3 3 3 3 3 3 2 2 2 2 2 1 1 1 2 1 2 2 3 3 3 4 6 10 10 9 8 8 8 7 7 6 6 5 4 4 2 2 2 3
2 2 1 2 2 2 2 4 4 4 3 3 3 2 2 2 2 2 1 2 3 3 3 3 3 2 4 9 10 10 10 9 8 7 7 6 6 4 4 4 3 3 3
2 2 2 2 1 1 2 2 3 3 3 2 3 4 4 4 3 1 2 2 2 3 3 4 4 4 3 3 8 10 10 9 8 7 7 6 6 5 4 4 4 4 4
3 3 3 2 2 2 1 1 2 3 3 2 2 3 3 3 3 3 2 2 2 2 3 4 4 4 4 4 4 8 9 8 7 7 7 7 6 6 6 5 5 5 5
5 5 4 4 3 3 2 1 1 1 2 2 1 1 2 1 2 3 3 2 3 2 3 3 3 4 4 4 5 8 8 7 7 6 6 5 5 6 6 6 6 6 6
6 6 5 5 5 4 4 4 4 3 1 1 1 1 0 0 2 2 3 3 2 2 2 2 2 3 3 3 3 7 7 7 7 7 7 6 6 6 6 6 7 7 7
6 8 7 7 6 5 6 6 6 6 5 5 3 2 1 0 0 1 2 3 2 2 2 2 2 2 3 3 6 6 5 6 6 6 7 7 7 8 8 8 8 8 8
6 7 8 8 7 7 7 7 7 7 7 6 5 4 3 3 2 1 1 2 2 2 2 2 2 2 2 2 4 4 4 5 6 6 6 7 7 7 7 8 8 8 8
7 8 9 9 9 8 8 7 7 7 7 7 7 5 3 4 3 2 1 1 2 3 3 3 2 2 3 2 5 5 3 6 5 5 6 6 6 7 7 7 7 8 8
7 9 9 9 9 9 8 8 7 7 7 6 6 5 4 4 3 3 2 1 2 1 2 3 1 2 2 2 3 3 3 6 3 4 5 5 6 6 6 7 7 7 7
9 9 9 9 9 9 8 7 7 7 7 7 6 7 6 5 4 3 3 2 2 2 2 3 2 2 3 2 2 3 2 2 4 2 3 5 5 6 6 7 7 7 8
9 9 9 9 9 9 8 7 8 7 8 7 7 7 7 7 5 4 3 3 3 3 2 3 3 3 2 3 2 3 3 3 2 5 2 3 4 5 5 5 6 6 7
9 9 9 9 9 8 7 7 7 7 7 7 7 7 7 6 6 6 4 5 4 4 2 3 2 2 2 2 3 4 3 3 3 6 3 2 2 3 4 4 5 5 6
9 9 8 8 8 8 7 7 7 7 7 7 7 7 7 6 6 6 5 5 4 3 2 1 2 2 1 2 3 3 3 2 4 3 6 7 4 2 1 2 3 4 5
8 8 7 7 7 7 7 6 6 6 6 7 6 6 7 7 7 6 4 4 4 3 2 1 1 1 1 2 2 3 3 2 3 3 2 1 5 7 6 3 0 3 4
7 7 7 7 7 6 7 6 5 6 6 6 6 6 7 8 8 7 6 6 5 3 2 2 2 2 3 4 4 4 4 4 2 2 4 2 1 1 4 6 3 3 4
7 6 6 6 7 8 8 8 6 5 5 5 5 5 5 4 4 2 3 5 6 5 5 4 3 4 4 4 4 5 4 5 3 3 4 3 2 2 1 3 6 3 4
6 6 6 7 8 9 7 7 8 3 4 4 4 4 4 5 2 4 2 5 3 2 3 5 5 5 5 5 6 6 5 6 5 4 5 4 2 2 1 6 6 2 2
6 6 6 7 7 8 6 6 9 1 4 3 3 4 4 4 6 6 5 3 2 2 0 3 4 5 5 5 6 6 6 6 5 2 3 4 3 3 2 3 8 5 2
5 5 6 6 6 8 7 7 10 1 3 3 3 5 5 5 7 7 5 3 2 1 4 5 5 6 7 7 7 6 5 5 4 2 2 4 4 4 1 1 5 9 7
5 5 6 6 6 7 7 7 11 2 3 2 3 4 7 6 6 7 6 4 4 4 4 1 4 7 7 6 9 6 6 6 5 3 3 4 4 4 2 2 1 2 5
Wind_Direction
198 191 197 204 211 198 193 213 217 201 218 215 224 234 253 269 288 297 110 114 111 93 50 259 224 216 209 209 218 225 226 228 232 233 231 232 234 236 235 233 234 236 237
198 198 199 201 216 215 215 212 210 206 223 230 225 219 244 250 21 315 329 122 122 99 68 62 80 115 156 166 177 185 196 205 221 237 236 238 244 245 244 244 243 244 243
201 206 205 203 210 212 208 222 213 212 209 205 211 201 205 234 93 353 311 318 113 112 87 68 66 68 77 99 137 191 218 222 225 232 235 244 258 253 251 253 253 254 252
210 208 208 210 207 213 210 211 217 213 212 211 197 159 140 129 108 59 342 3 19 55 93 78 69 64 61 57 49 42 38 26 256 226 266 265 261 261 261 265 262 265 263
206 209 209 207 209 214 215 217 202 214 202 192 155 122 109 111 110 86 69 57 65 59 73 94 82 68 59 52 47 45 45 53 50 50 50 52 57 36 5 318 292 276 273
192 199 199 199 213 214 214 211 193 188 194 181 158 114 108 112 91 83 86 81 67 69 63 73 94 81 66 56 50 50 54 59 59 57 54 55 59 54 39 17 357 328 305
168 174 181 167 200 208 216 196 187 169 174 171 170 158 143 117 111 109 105 96 92 78 71 65 61 64 81 67 52 48 48 50 51 51 49 41 35 33 30 20 6 345 326
100 124 125 140 146 166 175 179 185 183 176 198 212 199 194 179 156 119 130 125 111 100 86 79 70 58 49 68 68 53 43 37 42 45 44 35 25 16 5 353 347 347 341
75 81 102 110 107 109 107 139 186 198 189 192 241 249 238 216 154 133 120 101 101 97 94 83 72 65 60 56 57 58 43 34 34 35 34 30 24 17 4 350 334 321 316
69 70 72 77 78 80 89 97 86 174 186 188 177 309 320 336 214 163 143 114 94 85 84 83 83 75 60 60 65 57 45 35 28 25 20 14 3 357 357 356 342 325 309
64 67 71 73 75 75 73 69 64 58 73 74 106 117 91 29 257 222 173 155 135 103 91 77 66 62 57 50 49 53 39 30 23 18 13 11 5 0 354 349 346 340 330
65 61 66 67 69 70 70 69 67 65 63 63 60 48 35 3 215 231 168 175 152 109 79 61 51 52 46 41 56 44 39 33 26 23 22 20 15 9 5 359 352 348 345
69 63 63 62 63 65 69 70 71 68 69 69 65 65 58 49 30 5 147 152 151 138 133 113 60 34 33 28 60 16 74 49 34 29 26 21 12 5 1 360 357 352 347
74 72 70 67 64 64 66 68 71 71 71 71 67 61 65 57 49 39 51 172 188 168 143 84 61 38 21 26 49 299 78 73 37 25 18 12 5 2 1 356 352 347 344
81 75 74 73 68 66 67 68 69 67 68 68 71 68 63 63 54 52 40 342 299 227 132 110 71 53 3 45 35 342 18 71 45 32 17 4 359 358 354 352 350 346 345
76 75 74 73 71 67 66 69 76 72 71 65 59 55 48 55 52 52 48 35 356 341 71 91 83 59 25 350 81 343 355 177 174 104 25 2 358 354 350 349 349 347 344
77 76 74 73 71 68 65 66 70 72 71 69 67 66 57 43 43 50 55 54 43 31 69 84 80 83 38 348 4 331 322 309 111 128 54 348 342 344 346 346 347 346 343
74 74 72 72 71 69 66 69 73 74 74 73 70 68 64 59 50 39 40 51 53 38 44 76 73 67 37 349 351 315 325 336 327 126 164 256 302 324 338 345 345 344 343
72 72 72 72 72 72 71 70 73 75 73 72 69 65 61 56 50 47 34 44 50 56 40 53 60 45 355 17 324 314 329 316 305 142 189 198 195 229 276 323 337 342 340
72 72 72 72 73 72 72 74 77 78 77 74 70 65 56 50 43 34 37 34 29 30 42 12 30 21 16 10 319 333 337 337 333 344 349 260 187 199 203 200 219 356 343
74 75 76 77 75 71 56 48 72 80 80 81 75 70 64 55 39 17 11 12 8 356 2 4 12 16 20 358 356 339 340 331 348 358 328 321 198 219 178 179 139 32 349
72 74 76 77 72 63 39 19 9 77 76 74 71 71 95 89 83 95 39 9 356 352 0 349 10 16 10 2 355 331 340 336 340 18 323 320 335 341 358 73 75 43 351
79 78 77 76 77 69 42 22 1 26 69 60 51 41 46 67 8 38 126 202 208 226 295 327 351 358 355 8 341 334 349 334 331 339 323 319 336 344 7 99 118 101 5
81 80 78 78 79 70 42 16 338 359 66 57 43 35 32 35 32 357 351 11 27 91 206 289 337 331 343 340 322 307 300 291 284 258 313 316 341 338 13 117 149 166 165
87 88 82 76 75 78 44 8 331 44 74 62 51 41 15 35 44 341 319 347 4 39 183 226 267 283 296 287 291 298 311 316 339 14 358 330 341 335 340 110 152 178 183
92 89 82 74 72 72 53 15 337 348 57 62 88 103 75 27 8 337 325 348 4 2 338 286 234 234 242 229 228 267 313 329 341 356 23 337 340 340 348 11 32 150 184